{"data":{"norad_id":64713,"epoch":"2026-05-25T02:36:11.250720Z","epoch_age_seconds":62643,"freshness":"FRESH","line1":"1 64713U 25142T   26145.10846355  .00002308  00000+0  20111-3 0  9995","line2":"2 64713  70.0005 121.9027 0003966 262.6287  97.4421 14.98335850 50901","mean_motion":14.9833585,"eccentricity":0.0003966,"inclination_deg":70.0005,"raan_deg":121.9027,"arg_perigee_deg":262.6287,"mean_anomaly_deg":97.4421,"bstar":0.00020111,"rev_number":5090,"period_min":96.1066238921,"perigee_km":569.28136103502,"apogee_km":574.79423968667,"semimajor_km":6950.1748003608,"source":"CELESTRAK","updated_at":"2026-05-25T13:38:20.515768Z"}}